Location: Carrières
(48.9495°N, 2.0407°E)
Time: 16:28:52
(UTC+00:00)

Vanguard 1 Rocket - Pass Details

Date: 17 April 2024
Orbit: 651 x 4220 km, 34.3° (Epoch: 19 May)

Event Time Altitude Azimuth Distance (km) Brightness Sun altitude
Exits shadow 02:26:01 11° 187° (S) 6,680 11.3 -21.4°
Drops below altitude 10° 02:27:33 10° 183° (S) 6,902 11.4 -21.3°
Sets 02:37:11 0° 167° (SSE) 8,342 12.0 -20.2°
